Latest Weather Observations for Gabo Island

IDN60801

Issued at 11:33 pm EST Tuesday 27 September 2016 (issued every 30 minutes, with the page automatically refreshed every 10 minutes)

About weather observations | Map of weather stations | Latest weather observations for NSW | Other Formats
Station Details ID: 084016 Name: GABO ISLAND LIGHTHOUSE Lat: -37.57 Lon: 149.92 Height: 15.2 m
Data from the previous 72 hours. | See also: Recent months at Gabo Island
Date/Time
EST
Temp
°C
App
Temp
°C
Dew
Point
°C
Rel
Hum
%
Delta-T
°C
Wind Press
QNH
hPa
Press
MSL
hPa
Rain since
9am
mm
Dir  Spd
km/h
Gust
km/h
Spd
kts
Gust
kts
27/11:30pm 11.0 6.3 7.9 81 1.5 W 22 30 12 16 1011.8 - 1.0
27/11:00pm 11.1 6.0 7.8 80 1.6 W 24 32 13 17 1011.8 - 1.0
27/10:30pm 10.8 6.6 8.1 83 1.3 W 20 28 11 15 1011.9 - 1.0
27/10:00pm 10.9 6.6 8.0 82 1.4 W 20 26 11 14 1011.9 - 1.0
27/09:30pm 10.8 6.7 7.7 81 1.5 WNW 19 24 10 13 1012.0 - 1.0
27/09:00pm 11.0 6.4 8.1 82 1.4 W 22 28 12 15 1012.1 1012.1 1.0
27/08:30pm 11.5 6.4 7.8 78 1.8 W 24 30 13 16 1011.9 - 1.0
27/08:00pm 11.9 5.7 7.8 76 2.0 W 30 35 16 19 1011.7 - 1.0
27/07:30pm 12.3 5.2 8.0 75 2.1 WSW 35 46 19 25 1011.3 - 1.0
27/07:00pm 12.1 4.9 7.8 75 2.1 WSW 35 43 19 23 1011.1 - 1.0
27/06:30pm 12.2 4.9 7.0 70 2.5 WSW 35 44 19 24 1010.8 - 1.0
27/06:00pm 12.5 4.8 7.1 69 2.6 WSW 37 50 20 27 1010.7 1010.7 1.0
27/05:30pm 12.5 3.7 7.1 69 2.6 WSW 43 54 23 29 1010.3 - 1.0
27/05:00pm 12.7 5.1 7.6 71 2.5 WSW 37 44 20 24 1010.2 - 1.0
27/04:30pm 12.5 3.6 7.6 72 2.4 WSW 44 57 24 31 1009.8 - 1.0
27/04:00pm 12.8 2.7 7.2 69 2.7 SW 50 61 27 33 1009.3 - 1.0
27/03:30pm 13.0 2.4 8.6 74 2.2 SW 54 65 29 35 1008.9 - 1.0
27/03:00pm 13.2 2.6 6.8 65 3.1 SW 52 67 28 36 1008.7 1008.7 1.0
27/02:30pm 13.0 1.7 7.0 67 2.9 SW 56 67 30 36 1008.5 - 1.0
27/02:00pm 12.7 2.1 6.9 68 2.8 SW 52 63 28 34 1008.5 - 1.0
27/01:30pm 12.4 2.3 7.2 70 2.5 SW 50 63 27 34 1008.5 - 1.0
27/01:00pm 12.0 0.5 7.2 72 2.3 SW 57 69 31 37 1008.4 - 1.0
27/12:30pm 11.3 1.2 7.4 77 1.9 SSW 50 59 27 32 1008.5 - 0.8
27/12:00pm 10.7 0.8 8.2 84 1.2 SSW 50 59 27 32 1008.6 1008.6 0.6
27/11:30am 11.6 0.3 7.0 73 2.2 SSW 56 65 30 35 1008.3 - 0.0
27/11:10am 10.7 2.0 7.6 81 1.5 SW 43 63 23 34 1008.5 - 0.0
27/11:00am 10.3 0.7 8.0 86 1.1 WSW 48 59 26 32 1008.5 - 0.0
27/10:30am 10.7 1.6 6.7 76 1.9 WSW 44 57 24 31 1008.4 - 0.0
27/10:00am 10.7 0.1 7.1 78 1.7 WSW 52 61 28 33 1008.4 - 0.0
27/09:30am 10.0 1.4 6.6 79 1.6 WSW 41 54 22 29 1008.4 - 0.0
27/09:00am 9.2 1.5 6.9 85 1.1 W 37 48 20 26 1008.8 1008.8 2.8
27/08:30am 8.5 0.2 6.3 86 1.0 W 39 50 21 27 1008.9 - 2.4
27/08:02am 9.5 3.7 8.0 90 0.7 W 28 50 15 27 1008.9 - 1.0
27/08:00am 9.6 4.2 7.9 89 0.8 W 26 35 14 19 1008.9 - 0.8
27/07:30am 10.2 3.8 7.0 80 1.5 W 30 37 16 20 1008.1 - 0.0
27/07:26am 10.0 4.0 7.0 81 1.4 W 28 37 15 20 1007.9 - 0.0
27/07:00am 11.0 9.3 7.7 80 1.6 SSW 6 13 3 7 1007.1 - 0.0
27/06:30am 10.1 8.4 7.4 83 1.3 N 6 9 3 5 1007.2 - 0.0
27/06:00am 10.5 8.3 6.2 75 2.0 N 7 11 4 6 1007.2 1007.2 0.0
27/05:30am 9.9 8.8 6.9 81 1.4 WSW 2 6 1 3 1007.0 - 0.0
27/05:00am 9.9 8.0 6.7 80 1.5 WNW 6 7 3 4 1007.4 - 0.0
27/04:30am 9.7 7.6 6.0 78 1.7 N 6 7 3 4 1007.5 - 0.0
27/04:00am 9.6 6.5 5.4 75 1.9 N 11 15 6 8 1007.7 - 0.0
27/03:30am 10.1 6.5 4.8 69 2.4 N 13 15 7 8 1008.1 - 0.0
27/03:00am 9.1 5.9 5.1 76 1.8 N 11 15 6 8 1008.3 1008.4 0.0
27/02:30am 9.2 5.9 4.5 72 2.1 N 11 15 6 8 1008.8 - 0.0
27/02:00am 9.1 6.2 4.4 72 2.1 N 9 11 5 6 1009.2 - 0.0
27/01:30am 10.3 8.0 4.8 69 2.5 N 6 7 3 4 1009.7 - 0.0
27/01:00am 9.2 6.3 4.5 72 2.1 NNW 9 11 5 6 1010.0 - 0.0
27/12:30am 10.2 6.5 4.6 68 2.5 NW 13 15 7 8 1010.5 - 0.0
27/12:00am 9.5 5.8 4.6 71 2.2 NNW 13 15 7 8 1010.7 1010.7 0.0
 
Date/Time
EST
Temp
°C
App
Temp
°C
Dew
Point
°C
Rel
Hum
%
Delta-T
°C
Wind Press
QNH
hPa
Press
MSL
hPa
Rain since
9am
mm
Dir  Spd
km/h
Gust
km/h
Spd
kts
Gust
kts
26/11:30pm 9.8 6.2 4.9 71 2.2 NW 13 15 7 8 1010.9 - 0.0
26/11:00pm 9.9 6.0 5.5 74 2.0 NW 15 15 8 8 1011.1 - 0.0
26/10:30pm 10.7 7.6 5.7 71 2.3 NW 11 15 6 8 1011.4 - 0.0
26/10:00pm 10.7 7.6 5.5 70 2.4 NW 11 15 6 8 1011.7 - 0.0
26/09:30pm 11.0 7.5 5.6 69 2.5 NW 13 19 7 10 1011.9 - 0.0
26/09:00pm 10.9 7.1 6.0 72 2.3 W 15 19 8 10 1011.8 1011.8 0.0
26/08:30pm 10.8 7.5 6.6 75 2.0 WNW 13 17 7 9 1011.7 - 0.0
26/08:00pm 11.8 8.0 6.0 67 2.7 W 15 19 8 10 1011.5 - 0.0
26/07:30pm 12.5 8.5 6.6 67 2.8 SW 17 20 9 11 1011.3 - 0.0
26/07:00pm 13.1 8.6 5.9 61 3.4 SW 19 22 10 12 1011.2 - 0.0
26/06:30pm 13.0 8.4 5.8 61 3.4 SW 19 22 10 12 1010.9 - 0.0
26/06:00pm 13.3 7.6 5.1 57 3.8 SW 24 26 13 14 1010.9 1010.9 0.0
26/05:30pm 13.5 8.2 5.1 57 3.9 SSW 22 28 12 15 1010.6 - 0.0
26/05:00pm 13.9 7.8 4.9 54 4.2 SSW 26 32 14 17 1010.3 - 0.0
26/04:30pm 13.6 7.2 5.0 56 4.0 SSW 28 32 15 17 1010.1 - 0.0
26/04:00pm 14.0 6.9 5.5 56 4.0 SSW 32 37 17 20 1010.1 - 0.0
26/03:30pm 14.3 7.0 7.2 62 3.5 SSW 35 39 19 21 1010.0 - 0.0
26/03:00pm 14.3 7.1 5.9 57 4.0 SSW 33 41 18 22 1010.0 1009.9 0.0
26/02:30pm 14.1 7.1 6.7 61 3.6 SSW 33 39 18 21 1010.2 - 0.0
26/02:00pm 14.1 6.7 6.7 61 3.6 SSW 35 43 19 23 1010.2 - 0.0
26/01:30pm 14.2 6.9 7.3 63 3.4 SSW 35 39 19 21 1010.4 - 0.0
26/01:00pm 13.9 5.8 6.9 62 3.4 SSW 39 44 21 24 1010.6 - 0.0
26/12:30pm 13.7 5.2 6.9 63 3.3 SSW 41 48 22 26 1010.9 - 0.0
26/12:00pm 13.2 4.7 6.8 65 3.1 SW 41 46 22 25 1011.3 1011.3 0.0
26/11:30am 13.6 5.3 6.3 61 3.5 SW 39 44 21 24 1011.5 - 0.0
26/11:00am 14.1 7.0 6.4 60 3.7 SW 33 39 18 21 1011.9 - 0.0
26/10:30am 13.8 6.2 5.8 58 3.8 SW 35 43 19 23 1012.0 - 0.0
26/10:00am 14.5 8.4 6.4 58 3.9 WSW 28 35 15 19 1012.2 - 0.0
26/09:30am 13.3 6.7 5.9 61 3.5 WSW 30 35 16 19 1012.5 - 0.0
26/09:00am 12.8 5.8 5.8 62 3.3 WSW 32 39 17 21 1012.6 1012.7 0.4
26/08:30am 12.6 5.5 5.5 62 3.3 WSW 32 39 17 21 1012.4 - 0.4
26/08:00am 11.5 2.9 4.9 64 3.0 W 39 46 21 25 1012.5 - 0.4
26/07:30am 11.1 2.7 5.7 69 2.5 WSW 39 46 21 25 1012.2 - 0.4
26/07:00am 10.8 1.9 5.1 68 2.6 W 41 50 22 27 1012.1 - 0.4
26/06:30am 10.5 2.3 4.7 67 2.6 W 37 46 20 25 1012.3 - 0.4
26/06:00am 10.3 2.1 5.0 69 2.4 W 37 50 20 27 1012.1 1012.1 0.4
26/05:30am 10.3 2.2 5.2 70 2.3 W 37 46 20 25 1011.9 - 0.4
26/05:00am 10.4 2.1 5.9 73 2.1 W 39 50 21 27 1011.5 - 0.4
26/04:30am 10.3 2.0 6.0 75 2.0 W 39 50 21 27 1011.4 - 0.4
26/04:00am 10.3 2.4 6.0 75 2.0 W 37 46 20 25 1011.3 - 0.4
26/03:30am 10.4 1.7 6.1 75 2.0 W 41 48 22 26 1011.2 - 0.4
26/03:00am 10.2 1.0 5.6 73 2.1 W 43 52 23 28 1011.2 1011.1 0.4
26/02:30am 10.3 1.6 6.2 76 1.9 W 41 54 22 29 1011.4 - 0.4
26/02:00am 10.3 2.4 6.2 76 1.9 W 37 46 20 25 1011.8 - 0.4
26/01:30am 10.8 3.0 6.6 75 2.0 W 37 46 20 25 1012.0 - 0.4
26/01:00am 11.4 3.7 7.2 75 2.0 W 37 46 20 25 1012.1 - 0.4
26/12:30am 11.7 4.6 5.7 66 2.8 W 32 39 17 21 1012.0 - 0.4
26/12:00am 12.3 4.0 5.9 65 3.0 WSW 39 50 21 27 1011.8 1011.8 0.4
 
Date/Time
EST
Temp
°C
App
Temp
°C
Dew
Point
°C
Rel
Hum
%
Delta-T
°C
Wind Press
QNH
hPa
Press
MSL
hPa
Rain since
9am
mm
Dir  Spd
km/h
Gust
km/h
Spd
kts
Gust
kts
25/11:30pm 12.5 3.4 5.7 63 3.2 WSW 43 61 23 33 1011.7 - 0.4
25/11:27pm 12.6 2.9 6.0 64 3.1 WSW 46 65 25 35 1011.7 - 0.4
25/11:00pm 13.0 2.6 6.0 62 3.3 WSW 50 63 27 34 1011.6 - 0.4
25/10:38pm 12.7 5.5 5.7 62 3.3 WSW 33 54 18 29 1011.7 - 0.4
25/10:30pm 12.3 5.4 7.3 71 2.4 WSW 33 48 18 26 1011.7 - 0.4
25/10:00pm 11.8 5.1 5.8 66 2.8 W 30 35 16 19 1011.7 - 0.4
25/09:30pm 12.6 5.6 5.8 63 3.2 W 32 39 17 21 1011.5 - 0.4
25/09:20pm 12.7 6.2 6.6 66 2.9 W 30 54 16 29 1011.5 - 0.4
25/09:00pm 13.4 2.9 5.5 59 3.7 SW 50 61 27 33 1011.2 1011.1 0.4
25/08:30pm 13.3 2.6 6.6 64 3.2 SW 52 61 28 33 1010.9 - 0.4
25/08:00pm 13.0 3.8 6.3 64 3.2 WSW 44 56 24 30 1010.8 - 0.4
25/07:30pm 13.3 4.4 6.7 64 3.2 WSW 43 57 23 31 1010.5 - 0.4
25/07:00pm 13.3 4.5 7.1 66 3.0 SW 43 54 23 29 1010.1 - 0.4
25/06:30pm 13.5 3.2 6.7 63 3.3 SW 50 61 27 33 1009.6 - 0.4
25/06:00pm 13.5 3.7 7.1 65 3.1 SW 48 59 26 32 1009.4 1009.5 0.4
25/05:30pm 13.4 3.7 7.5 67 2.9 SW 48 57 26 31 1009.2 - 0.4
25/05:00pm 13.4 3.1 6.3 62 3.4 SW 50 61 27 33 1009.0 - 0.4
25/04:30pm 13.5 3.3 6.9 64 3.2 SW 50 65 27 35 1008.8 - 0.4
25/04:00pm 13.4 3.2 6.8 64 3.2 SW 50 63 27 34 1008.5 - 0.4
25/03:30pm 13.1 4.0 8.3 72 2.4 SW 46 57 25 31 1008.6 - 0.4
25/03:00pm 13.2 4.2 8.8 74 2.2 SW 46 56 25 30 1008.6 1008.5 0.4
25/02:30pm 13.3 4.0 9.2 76 2.1 SW 48 57 26 31 1008.3 - 0.4
25/02:00pm 13.8 6.4 9.9 77 2.0 SW 39 50 21 27 1008.3 - 0.4
25/01:30pm 13.2 4.2 10.3 82 1.5 SW 48 63 26 34 1008.1 - 0.4
25/01:00pm 13.9 4.4 9.8 76 2.1 SW 50 63 27 34 1007.9 - 0.4
25/12:30pm 14.0 4.4 9.3 73 2.4 SW 50 67 27 36 1007.8 - 0.4
25/12:00pm 15.1 4.0 7.9 62 3.6 SW 56 67 30 36 1007.3 1007.3 0.4
25/11:30am 13.3 3.2 10.4 82 1.5 WSW 54 65 29 35 1007.2 - 0.2
25/11:09am 14.6 5.9 11.4 81 1.7 WSW 48 67 26 36 1006.9 - 0.0
25/11:00am 15.1 7.3 11.2 77 2.1 WSW 43 54 23 29 1006.8 - 0.0
25/10:30am 14.5 6.0 10.7 78 2.0 SW 46 57 25 31 1006.9 - 0.0
25/10:00am 15.0 6.6 10.9 76 2.2 SW 46 56 25 30 1006.9 - 0.0
25/09:30am 15.9 8.9 11.3 74 2.5 SW 39 46 21 25 1006.8 - 0.0
25/09:00am 15.9 9.5 10.6 71 2.8 SW 35 44 19 24 1006.6 1006.5 0.0
25/08:30am 16.0 11.3 10.5 70 2.9 WSW 26 33 14 18 1006.4 - 0.0
25/08:00am 15.5 11.1 10.4 71 2.7 WSW 24 28 13 15 1006.1 - 0.0
25/07:30am 14.9 11.4 11.0 77 2.1 WSW 20 26 11 14 1005.7 - 0.0
25/07:00am 14.2 9.4 10.4 78 2.0 W 26 33 14 18 1004.8 - 0.0
25/06:30am 13.8 8.5 9.7 76 2.1 W 28 33 15 18 1004.5 - 0.0
25/06:00am 13.0 9.2 9.7 80 1.7 W 20 28 11 15 1004.3 1004.3 0.0
25/05:30am 13.5 9.3 9.6 77 2.0 W 22 30 12 16 1004.3 - 0.0
25/05:00am 13.5 9.2 10.6 82 1.5 WSW 24 28 13 15 1004.3 - 0.0
25/04:30am 13.8 8.1 9.9 77 2.0 WSW 30 35 16 19 1004.0 - 0.0
25/04:00am 14.1 8.0 9.6 74 2.3 WSW 32 39 17 21 1004.1 - 0.0
25/03:30am 14.0 10.2 11.2 83 1.5 WSW 22 30 12 16 1004.3 - 0.0
25/03:00am 13.8 8.5 11.2 84 1.4 WSW 30 35 16 19 1004.6 1004.6 0.0
25/02:30am 14.7 10.2 13.8 94 0.5 WSW 30 35 16 19 1004.9 - 0.0
25/02:26am 15.4 10.0 12.3 82 1.7 W 32 35 17 19 1004.9 - 0.0
25/02:00am 14.1 13.1 13.4 96 0.4 W 11 15 6 8 1004.8 - 0.0
25/01:30am 14.7 14.3 13.1 90 0.9 WNW 7 11 4 6 1004.8 - 0.0
25/01:00am 14.7 14.7 13.6 93 0.6 WNW 6 9 3 5 1004.9 - 0.0
25/12:30am 14.5 15.5 13.2 92 0.7 CALM 0 0 0 0 1005.2 - 0.0
25/12:00am 14.7 14.5 13.1 90 0.9 N 6 9 3 5 1005.3 1005.3 0.0

Other Formats:

Comma delimited format used in spreadsheet applications
http://www.bom.gov.au/fwo/IDN60801/IDN60801.94933.axf

JavaScript Object Notation format (JSON) in row-major order
http://www.bom.gov.au/fwo/IDN60801/IDN60801.94933.json